EHI
0 0 0 0 0 0 0 0 0 0 0 0 0 0 0 0 0 0 0 0 0 0 0 0 0 0 0 0 0 0 0 0 1 2 3 3 1 0 1 1 1 0 0 0
0 0 0 0 0 0 0 0 0 0 0 0 0 0 0 0 0 0 0 0 0 0 0 0 0 0 0 0 0 0 0 0 1 3 3 3 2 1 0 0 0 0 0 0
0 0 0 0 0 0 0 0 0 0 0 0 0 0 0 0 0 0 0 0 0 0 0 0 0 0 0 0 0 0 0 1 2 3 3 3 3 2 1 0 0 0 0 0
0 0 0 0 0 0 0 0 0 0 0 0 0 0 0 0 0 0 0 0 0 0 0 0 0 0 0 0 0 0 1 2 3 3 3 3 3 3 2 1 0 0 0 0
0 0 0 0 0 0 0 0 0 0 0 0 0 0 0 0 0 0 0 0 0 0 0 0 0 0 0 0 0 0 1 2 2 1 2 2 2 3 2 1 0 0 0 0
0 0 0 0 0 0 0 0 0 0 0 0 0 0 0 0 0 0 0 0 0 0 0 0 0 0 0 0 0 1 1 2 1 1 1 1 2 2 1 0 0 0 1 1
0 0 0 0 0 0 0 0 0 0 0 0 0 0 0 0 0 0 0 0 0 0 0 0 0 0 0 0 0 0 1 2 1 1 1 1 2 1 0 0 0 0 1 2
0 0 0 0 0 0 0 0 0 0 0 0 0 0 0 0 0 0 0 0 0 0 0 0 0 0 0 0 0 0 1 2 2 2 2 1 1 0 0 0 0 0 1 2
0 0 0 0 0 0 0 0 0 0 0 0 0 0 0 0 0 0 0 0 0 0 0 0 0 0 0 0 0 0 1 1 1 1 1 1 0 0 0 0 0 0 1 2
0 0 0 0 0 0 0 0 0 0 0 0 0 0 0 0 0 0 0 0 0 0 0 0 0 0 0 0 0 1 1 1 1 0 0 0 0 0 0 0 0 0 0 1
0 0 0 0 0 0 0 0 0 0 0 0 0 0 0 0 0 0 0 0 0 0 0 0 0 0 0 0 1 2 2 2 1 0 0 0 0 0 0 0 0 0 0 0
0 0 0 0 0 0 0 0 0 0 0 0 0 0 0 0 0 0 0 0 0 0 0 0 0 0 0 0 1 2 1 1 1 0 0 0 0 0 0 0 0 0 0 0
0 0 0 0 0 0 0 0 0 0 0 0 0 0 0 0 0 0 0 0 0 0 0 0 0 0 0 0 1 1 0 0 0 0 0 0 0 0 0 0 0 0 0 0
0 0 0 0 0 0 0 0 0 0 0 0 0 0 0 0 0 0 0 0 0 0 0 0 0 0 0 0 0 0 0 0 0 0 0 0 0 0 0 0 0 0 0 0
0 0 0 0 0 0 0 0 0 0 0 0 0 0 0 0 0 0 0 0 0 0 0 0 0 0 0 0 0 0 0 0 0 0 0 0 0 0 0 0 0 0 0 0
0 0 0 0 0 0 0 0 0 0 0 0 0 0 0 0 0 0 0 0 0 0 0 0 0 0 0 0 0 0 0 0 0 0 0 0 0 0 0 0 0 0 0 0
0 0 0 0 0 0 0 0 0 0 0 0 0 0 0 0 0 0 0 0 0 0 0 0 0 0 0 0 0 0 0 0 0 0 0 0 0 0 0 0 0 0 0 0
0 0 0 0 0 0 0 0 0 0 0 0 0 0 0 0 0 0 0 0 0 0 0 0 0 0 0 0 0 0 0 0 0 0 0 0 0 0 0 0 0 0 0 0
0 0 0 0 0 0 0 0 0 0 0 0 0 0 0 0 0 0 0 0 0 0 0 0 0 0 0 0 0 0 0 0 0 0 0 0 0 0 0 0 0 0 0 0
0 0 0 0 0 0 0 0 0 0 0 0 0 0 0 0 0 0 0 0 0 0 0 0 0 0 0 0 0 0 0 0 0 0 0 0 0 0 0 0 0 0 0 0
0 0 0 0 0 0 0 0 0 0 0 0 0 0 0 0 0 0 0 0 0 0 0 0 0 0 0 0 0 0 0 0 0 0 0 0 0 0 0 0 0 0 0 0
0 0 0 0 0 0 0 0 0 0 0 0 0 0 0 0 0 0 0 0 0 0 0 0 0 0 0 0 0 0 0 0 0 0 0 0 0 0 0 0 0 0 0 0
0 0 0 0 0 0 0 0 0 0 0 0 0 0 0 0 0 0 0 0 0 0 0 0 0 0 0 0 0 0 0 0 0 0 0 0 0 0 0 0 0 0 0 0
0 0 0 0 0 0 0 0 0 0 0 0 0 0 0 0 0 0 0 0 0 0 0 0 0 0 0 0 0 0 0 0 0 0 0 0 0 0 0 0 0 0 0 0
0 0 0 0 0 0 0 0 0 0 0 0 0 0 0 0 0 0 0 0 0 0 0 0 0 0 0 0 0 0 0 0 0 0 0 0 0 0 0 0 0 0 0 0
0 0 0 0 0 0 0 0 0 0 0 0 0 0 0 0 0 0 0 0 0 0 0 0 0 0 0 0 0 0 0 0 0 0 0 0 0 0 0 0 0 0 0 0
Wind_Speed
7 8 12 13 15 8 6 8 9 5 3 7 12 14 13 10 11 12 11 10 10 10 9 7 7 7 7 7 8 8 7 6 5 4 4 4 4 4 3 3 4 5 4 4
7 14 12 8 9 10 9 10 9 5 2 6 10 15 14 12 12 11 11 11 10 9 8 7 7 7 7 8 8 7 7 7 6 5 4 3 4 3 3 3 4 5 5 5
13 4 7 10 10 12 12 13 10 7 3 5 8 12 10 8 8 8 9 9 8 8 8 7 7 7 7 7 7 6 7 6 6 5 4 3 3 4 4 4 4 5 5 5
12 8 7 10 12 12 11 9 8 7 6 5 4 8 5 5 7 7 7 7 7 6 6 6 6 6 7 7 6 6 6 6 6 6 5 6 5 5 5 4 4 5 5 6
9 8 10 11 10 11 5 3 6 7 8 7 7 8 7 5 7 7 5 5 4 4 5 6 6 6 6 5 5 5 5 6 6 6 6 6 6 5 4 4 5 5 5 5
7 5 7 7 4 7 5 4 3 4 5 9 10 11 8 6 6 5 4 3 2 2 3 4 4 4 4 4 4 5 5 5 5 6 6 7 7 6 6 6 5 5 4 4
7 7 5 5 6 8 8 7 5 6 7 8 5 9 8 2 3 4 3 2 1 1 2 2 3 4 4 4 4 4 5 5 5 5 5 6 7 7 7 6 5 5 5 5
8 8 9 8 9 9 12 10 7 7 7 4 6 10 4 0 2 3 3 1 1 1 1 1 2 3 3 3 4 4 4 4 4 4 4 5 6 5 5 6 6 6 5 6
6 5 3 5 5 8 10 10 5 2 1 4 7 6 4 3 3 3 2 0 1 1 1 1 1 1 2 3 3 4 4 4 4 4 4 4 5 4 5 6 6 5 6 6
3 4 3 4 4 4 5 6 6 6 6 8 7 7 5 6 4 3 1 1 1 2 1 1 1 1 1 2 3 3 3 4 3 3 3 3 4 4 5 5 6 6 7 7
4 4 3 6 9 9 7 7 6 5 4 6 6 3 1 3 4 2 0 1 1 1 1 1 1 1 1 1 2 2 2 2 3 3 3 3 3 4 5 5 6 6 6 7
5 4 4 4 1 3 6 7 7 5 6 5 5 1 3 2 2 1 1 2 2 2 2 2 2 2 1 1 1 2 2 2 2 3 3 3 4 4 5 5 6 6 7 7
5 4 3 4 4 2 4 5 5 2 3 6 7 4 4 2 1 2 2 3 2 3 3 3 3 2 2 2 2 2 2 2 2 2 3 3 4 4 5 5 5 6 6 6
3 3 5 6 2 4 5 6 7 7 6 7 10 7 4 3 2 3 3 3 3 3 3 3 4 3 3 3 3 2 3 2 2 3 3 4 4 5 5 5 5 6 5 6
2 4 4 5 4 4 7 9 10 12 10 10 9 10 8 6 5 3 3 3 3 3 3 4 4 5 4 3 3 3 3 3 3 3 3 4 4 4 4 5 5 5 5 6
2 3 3 4 4 5 8 10 13 14 13 13 12 12 6 4 2 2 3 3 3 3 4 5 5 5 5 4 4 4 4 3 3 3 4 4 4 4 4 4 5 5 5 5
3 4 4 4 2 3 9 9 10 9 9 11 12 8 2 2 2 2 3 3 3 4 4 5 5 5 5 5 5 5 4 4 3 4 4 4 4 4 4 4 5 5 5 5
5 4 3 2 3 8 1 1 4 7 6 6 5 3 3 2 1 2 2 2 3 4 4 5 5 5 5 5 5 5 4 4 4 4 4 4 4 4 4 4 4 5 4 5
6 5 4 4 5 6 3 1 2 4 5 5 6 4 2 1 0 1 0 2 3 4 4 4 5 5 5 5 4 4 4 4 4 4 4 4 4 4 4 4 5 5 4 5
4 4 4 4 5 5 1 1 1 3 4 2 4 3 3 2 3 0 1 2 3 3 3 4 4 5 5 5 4 4 4 4 5 5 5 5 5 4 5 5 5 5 4 4
4 4 6 6 5 4 2 1 2 4 1 1 2 3 3 3 2 1 2 2 2 3 3 4 4 4 4 5 4 4 4 5 5 5 5 5 5 5 5 5 4 4 4 4
5 5 5 5 6 5 1 2 3 2 2 1 1 2 2 1 1 1 2 2 3 3 3 4 4 4 5 5 4 5 5 5 5 5 5 5 5 4 3 4 4 4 4 4
4 3 2 4 3 2 1 2 3 3 3 2 2 1 1 1 1 2 2 3 3 3 3 3 4 5 5 5 4 5 6 6 5 5 5 5 5 4 4 4 4 4 3 3
2 2 3 3 4 4 3 4 4 4 3 2 1 1 1 1 1 2 2 3 3 3 3 4 4 5 5 5 5 5 6 5 5 5 5 4 4 4 4 3 3 3 4 4
2 2 3 4 5 4 3 3 3 2 1 0 0 0 1 1 1 2 3 3 3 3 3 3 4 5 5 5 5 5 5 5 5 5 5 5 4 4 4 3 3 4 4 4
2 3 3 3 3 3 3 3 2 2 2 1 1 0 0 1 2 2 3 3 3 4 4 4 4 5 6 6 6 6 5 5 5 5 5 4 4 3 3 4 4 4 4 6
Wind_Direction
187 208 214 210 214 238 239 231 239 241 231 242 248 259 263 255 243 241 236 229 226 227 223 213 209 209 209 208 207 203 204 202 201 200 206 212 219 220 223 227 234 239 243 246
195 226 229 222 216 223 229 235 243 247 230 255 269 270 267 256 241 238 238 235 229 226 219 212 210 207 210 208 207 206 206 204 206 209 212 223 232 230 232 232 234 237 241 245
215 218 208 204 204 215 227 233 238 244 268 249 280 271 243 230 227 230 236 237 231 223 218 209 209 211 211 208 206 207 207 208 209 207 206 210 225 225 225 229 234 239 245 245
232 223 199 205 212 213 230 228 231 234 245 250 252 277 241 213 219 224 225 221 224 221 221 217 213 213 213 210 205 210 207 209 209 205 210 217 229 230 235 238 242 248 249 251
217 207 206 216 219 210 219 194 214 230 239 257 229 253 257 208 226 220 211 210 214 220 224 224 219 216 214 206 203 208 207 209 211 211 216 224 237 238 239 241 246 253 251 250
236 219 222 221 207 197 159 149 166 204 223 243 226 229 254 207 220 205 198 205 205 218 229 233 225 214 209 199 199 205 206 210 211 214 218 225 240 241 241 243 248 253 253 251
221 215 206 192 175 176 186 180 185 196 209 233 182 225 249 222 223 221 216 207 184 241 233 230 224 213 206 201 203 210 209 213 214 216 223 232 243 243 243 246 248 255 257 257
213 211 195 197 200 188 197 206 209 216 222 205 190 232 239 151 233 224 227 244 265 290 279 253 236 215 208 209 213 216 220 224 226 228 232 242 247 246 247 249 253 255 258 263
219 216 167 203 212 193 187 210 234 249 282 248 218 233 249 194 187 183 189 214 300 329 335 305 261 212 209 211 220 225 228 232 232 240 242 248 249 250 253 255 257 259 261 265
225 235 194 188 188 210 225 183 182 205 215 234 228 229 210 181 185 171 161 13 1 350 347 346 303 298 245 225 232 239 237 234 239 243 247 249 253 256 258 261 263 264 266 268
221 214 190 189 204 193 181 190 202 201 233 239 235 210 97 205 179 179 194 358 2 359 357 15 351 338 306 255 245 255 260 250 248 254 256 259 267 267 266 267 267 270 270 272
202 217 220 208 176 277 218 203 194 206 209 228 251 228 76 134 145 173 342 354 357 3 6 17 9 5 347 309 300 288 286 270 263 263 264 268 275 277 274 274 275 276 276 276
179 191 199 183 175 177 212 208 207 212 206 217 228 212 106 115 109 345 344 348 349 355 7 9 6 4 355 336 331 314 302 297 284 275 276 278 281 283 283 286 288 286 283 284
196 202 230 235 233 186 210 208 199 199 218 227 236 241 234 259 294 331 337 338 341 345 346 348 347 347 344 338 336 321 314 311 305 295 286 285 288 290 292 292 292 290 288 285
199 216 229 256 259 232 235 225 214 219 228 235 242 246 254 263 279 301 316 333 339 334 334 335 335 338 334 330 327 325 313 310 309 298 289 287 290 292 292 288 290 292 288 284
199 214 212 242 244 250 258 243 231 231 232 237 250 259 260 254 266 286 302 318 323 331 335 336 336 335 331 323 320 318 309 308 306 296 291 293 296 298 293 293 294 293 288 285
189 180 197 231 227 257 249 238 226 223 223 226 238 244 220 240 252 287 312 320 326 329 333 332 331 329 328 325 316 310 307 304 299 296 294 294 298 297 295 296 298 296 293 290
188 180 200 211 201 231 246 11 226 220 230 230 239 246 238 248 290 306 310 314 328 331 329 328 329 331 329 324 322 321 316 307 304 303 302 304 301 296 297 299 299 300 297 290
212 192 197 202 225 256 262 273 224 225 247 235 228 230 220 146 225 236 351 326 330 331 330 329 331 330 327 329 331 329 325 323 319 314 312 307 300 293 295 297 299 303 303 296
187 198 205 204 224 238 261 9 292 240 244 199 200 198 191 211 242 219 25 347 337 338 339 334 333 333 332 334 334 329 326 326 324 321 315 307 299 292 291 296 300 300 298 298
167 187 210 219 232 259 299 300 206 220 262 130 197 196 200 239 291 329 322 319 324 334 343 338 328 330 331 330 327 320 320 320 320 318 312 309 305 300 297 300 300 300 300 298
190 188 196 205 220 241 97 174 215 314 344 286 225 214 213 260 284 276 298 313 322 330 341 339 334 333 334 334 330 321 320 319 318 314 308 308 309 308 302 300 304 304 302 299
216 224 212 213 241 342 290 262 301 305 289 288 257 218 196 212 259 294 305 316 324 327 334 333 331 327 330 335 330 321 321 323 319 314 309 310 312 310 305 303 305 308 305 298
220 244 222 238 264 287 301 299 305 299 289 290 265 211 181 215 282 301 310 317 319 324 329 330 327 325 328 334 329 322 320 319 316 313 313 314 313 312 312 310 305 303 302 299
263 200 217 248 276 288 305 308 313 329 330 313 22 140 195 212 262 288 299 308 313 318 324 323 318 316 319 325 325 326 323 321 314 311 309 310 308 307 309 310 313 307 304 303
255 243 250 271 293 284 310 335 342 353 354 344 339 334 309 280 284 295 300 306 307 309 312 310 309 311 315 318 318 322 322 315 308 304 305 304 304 305 305 309 316 327 307 317